Retour au catalogue

DELTA 1 DEB

ActifSSO
NORAD 26827·DEBRIS·🇺🇸 United States

Lancé Jun 12, 1975 depuis Vandenberg Space Force Base

Loading…

Prochains Passages (prochaines 24 heures)

TLE

FraisSource: Space-Track

Époque: Sep 13, 2026, 17:58 UTC

1 26827U 75052KF  26256.74905363  .00000347  00000-0  79083-3 0  9996
2 26827  99.7768 182.8683 0111434 321.7311  66.2865 13.31264168606944

Suivez DELTA 1 DEB en temps réel avec AllMySat

Download on the App Store